Location: Olomouc
(49.5830°N, 17.2500°E)
Time: 03:53:20
(UTC+02:00)

ISS - Pass Details

Date: 19 May 2021
Orbit: 417 x 422 km, 51.6° (Epoch: 13 June)

Event Time Altitude Azimuth Distance (km) Brightness Sun altitude
Rises 00:30:23 0° 285° (WNW) 2,369 0.3 -20.6°
Reaches altitude 10° 00:32:29 10° 287° (WNW) 1,505 -0.7 -20.6°
Maximum altitude 00:35:52 72° 13° (NNE) 446 -3.6 -20.6°
Enters shadow 00:36:17 62° 67° (ENE) 480 -3.5 -20.6°
